[[{"header":{"parameterUnit":"m.s-1","parameterCategory":1,"la1":30.2991,"la2":30.254,"lo1":-89.0895,"lo2":-89.0444,"dy":0.0017,"dx":0.0017,"nx":28,"ny":28,"refTime":"2025-02-10T09:00:00:Z","depth":0,"parameterNumber":2,"parameterNumberName":"U-component_of_WINDS"},"data":[0,0,0,0,0,0,0,0,0,0,0,0,0,0,0,0,0,0,0,0,0,0,0,0,0,0,0,0,0,0,0,0,0,0,0,0,0,0,0,0,0,0,0,0,0,0,0,0,0,0,0,0,0,0,0,0,0,0,-1.3187,-1.3187,0,-1.3166,-1.3165,-1.3165,-1.3149,-1.3149,-1.3149,-1.3149,-1.3126,-1.3125,-1.3125,0,0,0,0,0,0,0,0,0,0,0,0,0,-1.3213,-1.3213,-1.3187,-1.3187,-1.3187,-1.3166,-1.3165,-1.3165,-1.3149,-1.3149,-1.3149,-1.3149,-1.3126,-1.3125,-1.3125,0,0,0,0,0,0,0,0,0,0,0,0,0,-1.3198,-1.3213,-1.3187,-1.3176,-1.3175,-1.3166,-1.3165,-1.3165,-1.3149,-1.3149,-1.3149,-1.3149,-1.3126,-1.3125,-1.3125,-1.3124,0,0,-1.3122,-1.3122,0,0,0,0,0,0,0,0,-1.3199,-1.3197,-1.3178,-1.3177,-1.3176,-1.316,-1.3166,-1.3151,-1.3149,-1.3159,-1.3149,-1.3149,-1.3137,-1.3136,-1.3132,-1.3123,-1.3122,-1.3122,-1.3122,-1.3122,-1.3121,0,0,0,0,0,0,0,-1.32,-1.3198,-1.3179,-1.3178,-1.3176,-1.3172,-1.317,-1.3163,-1.315,-1.3158,-1.3157,-1.3155,-1.3136,-1.3133,-1.3131,-1.3121,-1.3122,-1.3122,-1.3121,-1.3121,-1.3109,-1.3109,0,0,0,0,0,0,-1.3203,-1.3199,-1.3179,-1.3178,-1.3187,-1.3172,-1.3169,-1.3165,-1.315,-1.3147,-1.3155,-1.3154,-1.3134,-1.3132,-1.313,-1.3127,-1.3122,-1.3121,-1.312,-1.3109,-1.3109,-1.3109,0,0,0,0,0,0,-1.3203,-1.3201,-1.318,-1.3188,-1.3185,-1.3171,-1.3167,-1.3165,-1.3161,-1.3147,-1.3144,-1.3154,-1.3134,-1.3131,-1.3125,-1.3126,-1.312,-1.312,-1.3109,-1.3109,-1.3109,-1.3122,0,0,0,0,0,0,-1.3204,-1.3202,-1.3202,-1.3188,-1.3185,-1.3176,-1.3167,-1.3165,-1.316,-1.3159,-1.3145,-1.3143,-1.3133,-1.3126,-1.3125,-1.3125,-1.3119,-1.3108,-1.3109,-1.3109,-1.3122,-1.3123,-1.3124,0,0,0,0,0,-1.3205,-1.3206,-1.3202,-1.3199,-1.3185,-1.3176,-1.3174,-1.3164,-1.316,-1.316,-1.315,-1.3143,-1.3127,-1.3126,-1.3124,-1.3124,-1.3108,-1.3109,-1.3109,-1.3121,-1.3123,-1.3124,0,0,0,0,0,0,-1.322,-1.3204,-1.3199,-1.3196,-1.3188,-1.3174,-1.3173,-1.3166,-1.3158,-1.3157,-1.3144,-1.3142,-1.3137,-1.313,-1.3129,-1.3122,-1.3116,-1.3116,-1.3126,-1.3128,-1.3129,-1.313,-1.3119,0,0,0,0,0,-1.3223,-1.3218,-1.3204,-1.3203,-1.3199,-1.3187,-1.3183,-1.3175,-1.3166,-1.3162,-1.3153,-1.3144,-1.3136,-1.3132,-1.3124,-1.312,-1.3117,-1.3119,-1.3121,-1.3122,-1.3121,-1.3118,-1.3119,-1.311,-1.311,-1.311,0,0,-1.3229,-1.322,-1.3218,-1.3206,-1.3198,-1.3193,-1.3184,-1.3179,-1.3174,-1.3161,-1.3155,-1.3148,-1.3136,-1.3131,-1.3128,-1.3125,-1.3123,-1.3122,-1.3123,-1.3122,-1.3118,-1.3119,-1.312,-1.311,-1.311,-1.311,0,0,-1.3237,-1.323,-1.3227,-1.322,-1.3209,-1.3201,-1.32,-1.3187,-1.3182,-1.3175,-1.3165,-1.3159,-1.3147,-1.3139,-1.3133,-1.3137,-1.313,-1.3135,-1.3141,-1.3137,-1.3138,-1.3138,-1.3139,-1.3139,-1.3135,-1.3135,-1.3135,0,-1.3246,-1.3238,-1.3227,-1.3222,-1.3217,-1.3205,-1.3202,-1.3195,-1.3182,-1.3178,-1.3175,-1.3159,-1.315,-1.3142,-1.3143,-1.3139,-1.3137,-1.3136,-1.3139,-1.3139,-1.3139,-1.314,-1.314,-1.3136,-1.3135,-1.3135,-1.3135,0,-1.3248,-1.3243,-1.3242,-1.323,-1.3224,-1.322,-1.3208,-1.3204,-1.3197,-1.3188,-1.3181,-1.317,-1.316,-1.3158,-1.3151,-1.3148,-1.3147,-1.3141,-1.3136,-1.3141,-1.3141,-1.3141,-1.3137,-1.3136,-1.3136,-1.3136,0,0,-1.3266,-1.3247,-1.3247,-1.3241,-1.3227,-1.3222,-1.3217,-1.3207,-1.3203,-1.3194,-1.3189,-1.3179,-1.3173,-1.3167,-1.3159,-1.3156,-1.3158,-1.315,-1.315,-1.3152,-1.3153,-1.3157,-1.3158,-1.3153,-1.3153,-1.3153,-1.3154,0,-1.3271,-1.3262,-1.3252,-1.3246,-1.324,-1.3228,-1.3224,-1.3214,-1.3206,-1.3199,-1.319,-1.3182,-1.3176,-1.3172,-1.3169,-1.3158,-1.3158,-1.3158,-1.3147,-1.3147,-1.315,-1.3158,-1.3162,-1.3164,-1.3154,-1.3154,-1.3154,0,-1.3276,-1.3268,-1.3262,-1.3248,-1.3245,-1.3241,-1.3231,-1.3225,-1.3213,-1.3207,-1.32,-1.3191,-1.3184,-1.3179,-1.3169,-1.3169,-1.3163,-1.3158,-1.3157,-1.3156,-1.3151,-1.3156,-1.3165,-1.3165,-1.3154,-1.3154,-1.3154,0,-1.3288,-1.3276,-1.327,-1.3265,-1.3249,-1.3246,-1.324,-1.3228,-1.3223,-1.3213,-1.3209,-1.3199,-1.3193,-1.3185,-1.3173,-1.3171,-1.3163,-1.3158,-1.3157,-1.3158,-1.3156,-1.3157,-1.3164,-1.3154,-1.3154,-1.3154,-1.3154,0,-1.3295,-1.3291,-1.3275,-1.3272,-1.3267,-1.3255,-1.325,-1.3242,-1.3232,-1.3226,-1.3215,-1.3209,-1.3194,-1.3186,-1.3177,-1.3169,-1.3167,-1.3161,-1.3158,-1.3162,-1.3162,-1.3158,-1.3157,-1.3154,-1.3154,-1.3154,-1.3154,0,-1.3308,-1.3297,-1.329,-1.3275,-1.3271,-1.3268,-1.3255,-1.3251,-1.3242,-1.3234,-1.3232,-1.3217,-1.3207,-1.3195,-1.3181,-1.3175,-1.3168,-1.3164,-1.3172,-1.317,-1.317,-1.317,-1.3175,-1.3174,-1.3165,-1.3165,-1.3165,0,-1.3313,-1.331,-1.3295,-1.329,-1.3283,-1.3276,-1.327,-1.3258,-1.3252,-1.3238,-1.3235,-1.3225,-1.3216,-1.32,-1.3188,-1.3177,-1.3173,-1.3175,-1.3171,-1.3174,-1.3172,-1.3172,-1.3171,-1.3176,-1.3176,-1.3176,-1.3177,0,-1.3322,-1.3317,-1.3309,-1.3299,-1.3293,-1.3284,-1.3275,-1.3272,-1.3257,-1.3251,-1.3241,-1.3234,-1.3219,-1.3209,-1.3196,-1.3188,-1.3179,-1.3178,-1.3177,-1.318,-1.3185,-1.3182,-1.3174,-1.3178,-1.3178,-1.3178,-1.3177,-1.3177,-1.333,-1.3327,-1.3316,-1.3307,-1.3299,-1.3291,-1.3286,-1.3276,-1.3268,-1.3256,-1.3248,-1.3238,-1.3226,-1.3208,-1.32,-1.3191,-1.3188,-1.3187,-1.3187,-1.3187,-1.3188,-1.3186,-1.3189,-1.3189,-1.3189,-1.3189,-1.3189,0,-1.3339,-1.3331,-1.3323,-1.3311,-1.3304,-1.3297,-1.3287,-1.3281,-1.3273,-1.3262,-1.3253,-1.3241,-1.3231,-1.3217,-1.3205,-1.3201,-1.3197,-1.3198,-1.3198,-1.3196,-1.3192,-1.3193,-1.3202,-1.3202,-1.3202,-1.3202,-1.3202,-1.3202,-1.3342,-1.3336,-1.3329,-1.3318,-1.3309,-1.33,-1.3295,-1.3286,-1.3278,-1.3265,-1.3257,-1.3248,-1.3236,-1.3223,-1.3212,-1.3209,-1.3204,-1.3207,-1.3202,-1.3198,-1.3197,-1.3196,-1.3197,-1.3206,-1.3206,-1.3207,-1.3207,-1.3207]},{"header":{"parameterUnit":"m.s-1","parameterCategory":1,"la1":30.2991,"la2":30.254,"lo1":-89.0895,"lo2":-89.0444,"dy":0.0017,"dx":0.0017,"nx":28,"ny":28,"refTime":"2025-02-10T09:00:00:Z","depth":0,"parameterNumber":3,"parameterNumberName":"V-component_of_WINDS"},"data":[0,0,0,0,0,0,0,0,0,0,0,0,0,0,0,0,0,0,0,0,0,0,0,0,0,0,0,0,0,0,0,0,0,0,0,0,0,0,0,0,0,0,0,0,0,0,0,0,0,0,0,0,0,0,0,0,0,0,4.4221,4.4222,0,4.4288,4.4288,4.4289,4.4242,4.424,4.4238,4.4236,4.4302,4.4306,4.431,0,0,0,0,0,0,0,0,0,0,0,0,0,4.4052,4.4055,4.4221,4.4222,4.4222,4.4287,4.4288,4.4289,4.4243,4.424,4.4238,4.4235,4.4301,4.4306,4.431,0,0,0,0,0,0,0,0,0,0,0,0,0,4.4122,4.4056,4.4221,4.4207,4.4207,4.4287,4.4288,4.429,4.4243,4.424,4.4237,4.4234,4.43,4.4305,4.4311,4.4408,0,0,4.4328,4.433,0,0,0,0,0,0,0,0,4.4118,4.4129,4.4208,4.4208,4.4208,4.4254,4.4253,4.4329,4.4244,4.4229,4.4236,4.4233,4.4289,4.4295,4.4314,4.4411,4.4413,4.4328,4.4331,4.4334,4.4335,0,0,0,0,0,0,0,4.4114,4.4125,4.4247,4.421,4.4209,4.4197,4.4204,4.4267,4.4276,4.423,4.4227,4.4236,4.4288,4.4309,4.4315,4.4414,4.4328,4.4333,4.4336,4.4338,4.4596,4.46,0,0,0,0,0,0,4.411,4.4122,4.4245,4.4249,4.4155,4.4203,4.421,4.4242,4.4275,4.4277,4.4238,4.4233,4.4301,4.4309,4.4317,4.4436,4.4334,4.4339,4.4342,4.4593,4.4597,4.4601,0,0,0,0,0,0,4.4107,4.4122,4.4242,4.4185,4.4199,4.4209,4.4245,4.4245,4.4266,4.4281,4.4282,4.4259,4.4299,4.431,4.4386,4.4437,4.4342,4.4347,4.4589,4.4594,4.4599,4.4671,0,0,0,0,0,0,4.4102,4.4121,4.4158,4.4186,4.4202,4.4311,4.4248,4.4248,4.4276,4.427,4.43,4.4302,4.4297,4.4378,4.4392,4.4443,4.4351,4.4584,4.4591,4.4597,4.4665,4.4679,4.469,0,0,0,0,0,4.4096,4.4174,4.416,4.4175,4.4249,4.4314,4.4323,4.4317,4.428,4.4318,4.4328,4.4301,4.4429,4.4386,4.4401,4.4455,4.4581,4.4589,4.4597,4.4659,4.4676,4.469,0,0,0,0,0,0,4.4151,4.4178,4.4162,4.4252,4.4281,4.4306,4.4353,4.4334,4.4374,4.4366,4.4355,4.4363,4.4444,4.4456,4.4409,4.4552,4.4499,4.451,4.4541,4.4557,4.457,4.4567,4.4356,0,0,0,0,0,4.4173,4.4224,4.4244,4.4322,4.4337,4.4343,4.437,4.4363,4.4392,4.4404,4.4419,4.4449,4.4495,4.4527,4.457,4.4665,4.4672,4.471,4.4722,4.4733,4.4744,4.4798,4.4815,4.4627,4.4627,4.4627,0,0,4.422,4.4241,4.4274,4.4333,4.4355,4.4408,4.4353,4.4411,4.4451,4.4413,4.4487,4.4499,4.4531,4.4618,4.4657,4.4631,4.4797,4.4743,4.4751,4.4757,4.4808,4.4826,4.4841,4.4632,4.4631,4.463,0,0,4.4334,4.4354,4.4423,4.4446,4.448,4.4483,4.45,4.4528,4.4535,4.4609,4.4583,4.4629,4.4709,4.4734,4.4757,4.4881,4.486,4.4895,4.4964,4.5017,4.5032,4.5045,4.5092,4.5109,4.4905,4.4906,4.4906,0,4.4389,4.4468,4.4459,4.4521,4.4548,4.4517,4.4587,4.4609,4.4655,4.4675,4.4645,4.4747,4.4766,4.486,4.4891,4.4909,4.4929,4.4893,4.503,4.5043,4.5056,4.5101,4.5118,4.491,4.491,4.4909,4.4909,0,4.4535,4.459,4.4641,4.4689,4.4722,4.4786,4.4787,4.4822,4.4811,4.4818,4.4895,4.4916,4.4965,4.4986,4.4976,4.5079,4.5063,4.5032,4.4979,4.5078,4.5121,4.5137,4.4916,4.4915,4.4914,4.4912,0,0,4.4686,4.4729,4.4748,4.4771,4.4806,4.4849,4.4912,4.4961,4.4992,4.5024,4.5079,4.5148,4.512,4.5147,4.5138,4.5184,4.5285,4.5148,4.5148,4.5175,4.5404,4.5429,4.5449,4.527,4.5273,4.5275,4.5402,0,4.4804,4.4917,4.4912,4.5017,4.5069,4.5041,4.5096,4.5124,4.5132,4.5177,4.5184,4.5235,4.5193,4.5209,4.5253,4.5264,4.5331,4.5254,4.5321,4.5324,4.5318,4.5471,4.5498,4.5617,4.5418,4.5421,4.5423,0,4.4958,4.4999,4.511,4.514,4.5162,4.5212,4.5258,4.53,4.5332,4.5334,4.5364,4.5349,4.5414,4.5357,4.5447,4.5395,4.5422,4.5431,4.5435,4.5444,4.5382,4.5487,4.5654,4.5673,4.5448,4.5446,4.5445,0,4.5062,4.5143,4.5221,4.5241,4.5277,4.5313,4.533,4.5358,4.5388,4.5427,4.5448,4.5493,4.5519,4.5554,4.5552,4.5511,4.5644,4.5587,4.5649,4.565,4.5681,4.568,4.5859,4.5693,4.5693,4.5692,4.5692,0,4.5196,4.5266,4.5269,4.5317,4.5395,4.5387,4.5464,4.5476,4.5502,4.5552,4.5529,4.5576,4.5569,4.5617,4.5614,4.5691,4.5701,4.5706,4.5706,4.5711,4.5711,4.573,4.5723,4.5697,4.5696,4.5695,4.5694,0,4.5327,4.5331,4.5414,4.5442,4.5451,4.5507,4.5531,4.5577,4.5582,4.5646,4.5661,4.567,4.5725,4.5725,4.5787,4.5786,4.5881,4.5869,4.5871,4.587,4.5934,4.5929,4.6134,4.6162,4.5975,4.5977,4.5978,0,4.5414,4.5468,4.5502,4.5535,4.5554,4.5607,4.5638,4.5632,4.5666,4.5707,4.5748,4.5801,4.5844,4.5933,4.5945,4.5993,4.5984,4.6053,4.5991,4.5995,4.5989,4.5988,4.5994,4.6066,4.6068,4.6069,4.6071,0,4.557,4.557,4.5617,4.5666,4.5705,4.5742,4.5777,4.5804,4.5802,4.5841,4.5898,4.5932,4.5996,4.605,4.6097,4.6113,4.6093,4.609,4.6107,4.6115,4.6115,4.6119,4.5908,4.6086,4.6084,4.6083,4.6082,4.6082,4.5684,4.5731,4.5764,4.5818,4.5843,4.5877,4.5922,4.5934,4.5982,4.6035,4.6028,4.6092,4.6123,4.6184,4.6204,4.6254,4.6231,4.6255,4.6262,4.6269,4.6278,4.6105,4.6262,4.6262,4.6261,4.6261,4.6261,0,4.5842,4.5862,4.5911,4.5962,4.6004,4.5981,4.6018,4.6055,4.6113,4.6143,4.6186,4.6253,4.6305,4.6321,4.6371,4.6409,4.6401,4.6422,4.6421,4.6426,4.6294,4.6276,4.6428,4.6428,4.6428,4.6428,4.6428,4.6428,4.5929,4.601,4.6013,4.6106,4.6125,4.6189,4.6212,4.6243,4.6268,4.6344,4.6388,4.6398,4.6423,4.6476,4.6523,4.6526,4.6548,4.6574,4.6574,4.6452,4.6435,4.6419,4.6402,4.6578,4.6578,4.6702,4.6703,4.6704]}]]